Dewpoint
46 46 46 45 45 44 43 43 43 43 41 40 40 40 40 39 39 39 39 39 38 38 38 38 38 38 38 38 37 36 36 35 35 34 34 33 34 34 34 34 33 33 33 32 32 32 32 32 32 32 32 32 31 31 30 31 31 30 29 29 29 29 29 29 29 28 28 29 29
45 45 45 44 44 43 42 42 42 42 41 40 40 40 40 40 39 38 38 39 39 39 38 38 38 37 37 37 36 35 35 34 34 34 33 33 33 34 33 33 33 33 33 33 32 32 31 31 32 32 32 32 30 29 29 31 32 30 29 28 29 29 29 29 28 28 28 28 29
43 43 43 42 42 41 41 41 41 41 41 40 40 40 40 40 39 38 38 39 39 39 38 37 37 37 37 37 36 35 34 34 33 33 32 32 32 32 32 32 32 33 33 33 33 32 31 31 31 31 31 31 29 28 28 29 30 29 29 28 28 29 29 29 28 28 28 29 29
42 42 42 41 41 40 39 40 40 40 40 40 40 40 40 39 39 39 39 39 39 38 37 37 37 37 37 36 35 35 34 34 33 33 32 32 32 32 32 32 32 32 33 33 33 32 32 31 31 31 30 29 28 28 28 28 28 29 29 29 29 29 28 28 28 28 29 29 29
41 41 41 41 40 39 39 39 39 39 39 39 39 39 39 39 39 39 38 38 38 37 37 37 37 36 36 36 35 34 34 34 33 32 32 31 31 32 32 32 32 32 33 33 33 33 33 31 31 31 30 29 29 29 29 29 28 28 29 29 30 29 29 28 28 29 29 29 29
40 40 41 41 40 39 39 39 39 38 38 38 38 38 38 38 38 38 37 37 37 37 37 37 37 36 35 35 34 34 34 34 33 32 32 31 32 32 32 32 32 32 33 33 34 34 34 32 31 30 30 30 31 30 30 29 28 29 29 29 29 29 29 29 29 29 29 29 29
39 39 40 40 40 40 39 39 39 38 38 38 37 37 37 37 37 37 37 37 37 38 37 37 36 36 35 35 34 33 33 33 33 32 32 31 32 32 32 32 33 33 33 33 34 34 33 32 31 30 30 30 29 30 31 31 29 29 29 29 29 29 30 30 31 31 31 30 31
39 39 39 40 40 40 40 40 39 38 37 37 37 37 37 37 37 37 37 37 37 37 37 37 36 36 35 34 33 32 32 32 32 32 32 31 31 32 32 33 33 33 34 34 33 33 32 32 32 31 30 30 29 29 30 32 32 31 30 30 29 30 31 33 34 34 32 32 33
39 40 40 41 40 40 40 40 39 38 37 37 37 37 37 37 38 37 37 37 37 37 37 36 36 36 35 34 33 32 32 32 32 32 32 32 32 32 32 32 32 32 33 34 33 33 33 32 32 31 31 30 29 30 31 32 33 33 32 30 30 29 30 31 32 32 32 33 34
39 40 40 40 40 40 40 40 39 38 38 37 37 37 38 38 38 38 37 37 37 37 37 36 35 35 34 33 33 33 33 32 32 32 32 32 32 32 32 32 32 32 32 33 33 33 33 32 32 32 32 31 31 32 32 33 33 33 32 31 31 31 30 30 30 31 31 32 34
40 40 39 39 40 40 40 39 39 38 38 38 38 38 38 39 39 38 38 37 37 36 36 36 35 34 33 33 33 33 33 32 32 32 32 32 32 32 32 32 32 32 32 33 33 33 33 32 32 32 33 32 32 33 33 34 34 33 33 32 32 32 32 31 31 31 31 32 34
40 39 39 39 39 39 39 38 38 38 38 38 38 38 38 39 38 38 38 37 36 36 36 36 35 34 33 34 33 33 32 32 32 32 32 32 32 33 33 33 33 33 33 34 34 34 33 34 33 33 33 32 33 34 34 35 34 34 33 33 33 32 32 32 32 32 32 32 34
39 39 39 39 39 39 39 38 38 38 38 38 38 38 38 38 38 37 37 36 35 35 35 35 35 34 34 33 33 33 33 32 32 32 32 32 33 33 34 34 34 34 34 35 35 35 34 34 35 35 34 33 33 33 34 35 34 34 33 32 32 32 32 33 34 34 34 33 35
39 38 38 38 38 38 38 38 38 38 37 38 37 37 37 37 37 36 36 35 35 34 34 34 34 34 34 33 33 33 32 32 32 32 32 32 33 34 34 34 35 35 35 35 35 35 35 35 36 36 35 34 34 33 33 34 33 33 33 32 32 32 32 33 36 36 36 36 36
38 38 38 38 37 37 37 38 37 37 37 37 37 37 36 35 35 35 35 35 35 34 33 33 33 33 33 34 33 33 32 32 32 32 32 33 33 34 34 34 34 35 36 36 35 35 36 36 37 37 36 35 35 35 34 34 34 34 34 33 33 33 33 35 36 37 37 37 37
37 37 37 37 37 37 37 38 37 37 37 37 37 36 35 34 34 34 35 35 34 33 33 33 33 33 33 33 33 33 32 32 32 32 32 33 33 33 33 33 33 35 36 37 36 35 35 36 37 37 37 37 36 36 35 35 35 36 36 36 36 36 36 36 36 36 36 36 36
36 36 36 36 37 37 37 37 37 37 37 37 36 35 34 33 33 34 34 34 33 32 32 33 33 33 33 33 33 33 32 32 32 32 32 33 33 33 33 33 33 34 37 39 37 36 35 35 35 36 37 37 37 37 36 37 37 37 37 37 37 37 37 36 35 35 34 35 35
35 35 36 36 36 37 38 38 37 37 37 37 36 35 34 33 33 33 34 34 33 32 32 33 33 33 33 33 33 33 33 32 33 33 34 34 34 33 33 33 33 34 37 41 38 36 35 35 34 35 35 37 37 37 37 37 38 37 37 37 37 37 37 37 36 35 34 34 35
35 35 35 35 36 37 38 38 37 37 37 36 35 35 34 34 34 34 34 34 33 33 33 33 33 33 33 33 33 33 33 33 34 34 35 35 35 35 34 34 34 34 36 40 38 37 35 34 33 33 34 36 37 38 38 38 37 37 37 37 37 37 37 37 37 37 37 37 37
34 34 35 36 37 37 38 37 37 37 36 35 35 35 34 34 34 34 34 34 33 33 34 33 33 32 33 33 33 33 33 34 34 34 34 35 35 35 35 34 34 34 36 39 38 37 35 34 33 34 35 37 37 37 37 37 37 37 37 37 37 37 38 38 38 38 38 38 38
34 35 35 36 37 37 37 37 36 36 35 35 34 34 34 34 34 34 34 34 34 34 34 34 34 33 33 34 33 33 33 34 34 34 33 34 35 35 35 34 33 33 35 39 38 37 36 35 36 36 37 36 36 36 36 36 36 36 37 37 37 38 38 38 38 38 38 38 38
35 36 36 37 37 37 37 36 35 35 34 34 34 34 34 33 33 34 35 35 35 35 34 35 35 34 34 35 34 34 34 33 33 33 33 33 33 33 33 33 33 33 35 38 37 37 37 37 37 36 35 34 33 34 35 35 35 35 36 36 37 37 37 37 37 37 38 38 38
36 36 36 37 37 36 35 35 34 34 33 33 34 33 33 33 33 34 34 35 35 34 34 35 35 35 36 36 35 35 34 33 33 32 32 32 32 32 32 32 33 34 36 38 37 36 35 36 35 33 32 32 32 32 34 35 36 36 36 36 36 37 36 35 36 37 37 37 37
36 36 36 36 36 35 34 34 33 33 33 33 33 33 33 32 33 33 33 34 34 34 34 34 35 36 36 36 35 34 33 32 32 31 31 31 31 31 32 32 32 33 35 37 37 37 35 34 33 33 32 32 33 34 35 34 34 35 36 35 36 36 36 36 37 37 37 37 36
36 36 35 35 34 34 33 33 33 33 33 33 33 33 32 32 33 33 33 33 33 34 34 34 35 35 35 34 33 33 32 32 31 30 30 30 30 30 31 31 31 32 33 36 36 36 36 35 35 35 35 34 34 34 34 34 34 34 34 34 34 35 36 36 37 37 38 38 37
36 35 34 34 33 33 33 33 34 34 34 34 34 33 33 33 32 32 33 33 33 33 34 34 34 33 33 32 32 31 31 31 30 30 30 30 30 30 31 31 31 33 35 34 35 35 36 36 36 36 36 37 36 35 34 33 34 35 35 35 35 36 36 35 35 35 35 37 38
36 36 35 34 34 34 34 34 34 34 34 34 34 34 33 33 32 32 33 33 33 33 34 34 33 32 31 31 31 30 30 30 30 31 31 31 31 31 30 30 33 36 36 34 35 36 36 37 37 37 37 39 38 36 35 33 36 37 38 38 38 37 37 35 35 34 33 33 36
36 36 35 35 35 35 35 35 34 34 34 33 34 34 34 33 33 32 32 33 33 33 33 32 32 32 31 30 30 30 30 30 30 31 31 32 32 31 31 30 33 36 37 36 36 37 37 37 37 37 37 37 37 36 36 36 36 36 37 37 36 36 36 35 34 32 32 32 33
36 36 36 35 35 35 35 35 34 33 33 33 33 34 34 34 33 33 33 32 33 32 32 32 31 30 30 30 30 30 31 31 31 31 31 32 31 31 30 30 31 33 35 35 36 37 37 37 37 38 38 37 36 35 35 35 35 34 34 34 34 34 34 33 33 32 32 31 31
37 37 37 36 36 35 35 34 33 33 32 33 33 33 33 33 33 33 32 32 32 32 32 32 31 30 29 29 30 30 30 29 31 31 31 31 30 30 30 30 31 32 34 35 36 37 37 37 38 38 38 38 37 36 35 34 34 34 34 33 33 33 33 32 32 32 32 31 31
38 38 38 36 36 35 35 34 33 32 32 32 32 33 33 32 32 32 32 32 32 32 32 32 31 30 29 28 28 28 28 28 29 30 30 31 30 30 30 30 31 33 35 35 36 36 37 37 38 38 38 38 37 36 35 34 34 34 34 33 33 33 33 33 33 32 32 32 31
39 39 38 36 35 35 34 33 32 32 32 32 32 32 32 32 32 32 32 32 32 32 31 30 30 29 28 28 27 27 27 28 29 29 30 31 30 30 30 30 31 32 34 35 36 36 37 37 38 38 38 38 37 36 35 35 34 34 34 34 35 35 34 33 33 32 32 32 31
38 38 38 36 35 35 34 33 32 32 32 31 31 32 32 33 32 32 32 32 31 30 29 29 29 28 28 27 26 26 27 28 29 29 30 30 30 30 30 30 30 31 33 35 35 36 37 37 37 37 38 38 37 36 35 34 34 33 33 33 34 34 34 35 34 33 32 32 31
37 37 37 36 35 34 33 32 32 32 32 31 31 32 32 33 33 33 32 31 29 29 28 28 28 27 27 26 26 26 27 28 29 29 30 30 30 30 30 30 30 32 33 34 35 36 36 37 37 37 37 38 36 35 34 33 33 33 33 33 33 34 34 35 35 35 34 33 32
36 36 35 35 34 33 32 32 32 32 31 32 32 32 32 33 33 32 31 30 29 28 28 27 27 27 26 26 27 27 27 27 28 28 29 29 29 29 29 30 30 32 33 34 35 35 36 37 37 37 37 37 35 34 33 33 32 32 32 33 33 34 35 35 36 36 35 35 33
34 34 34 33 33 33 32 32 32 32 32 32 32 32 32 32 32 31 30 29 28 28 27 27 26 26 26 26 27 27 27 27 27 27 28 28 29 29 29 29 29 31 33 34 35 35 36 37 37 37 37 36 34 33 33 32 32 31 32 32 32 33 33 34 35 35 34 35 34
32 32 32 32 32 32 32 32 32 32 32 32 32 33 32 32 31 30 29 28 28 27 27 26 26 26 26 26 27 27 28 28 28 28 28 28 28 28 28 28 29 30 32 33 34 35 36 36 37 37 36 35 33 33 32 32 32 32 32 32 32 32 33 33 33 33 34 34 34
32 32 32 32 32 32 32 32 32 32 32 32 32 32 32 31 30 29 28 28 27 27 26 26 26 26 27 27 28 28 28 29 29 28 28 28 28 28 28 28 29 30 32 33 34 35 35 36 36 36 36 34 33 32 32 32 32 31 31 31 32 32 32 32 32 32 33 34 34
32 32 33 33 33 33 32 32 32 32 32 32 31 31 30 29 29 28 28 27 27 27 26 26 26 27 28 28 28 28 28 28 29 29 28 28 28 28 29 28 29 30 32 33 34 34 35 35 36 36 36 34 33 32 32 31 31 31 31 31 31 32 32 32 32 32 32 33 33
32 32 32 32 32 32 32 31 30 31 31 31 31 30 29 28 28 28 27 27 27 27 27 26 27 28 28 28 28 28 28 28 29 29 29 28 29 30 30 29 29 30 31 32 33 34 35 35 36 36 36 34 33 32 32 32 31 31 30 30 31 31 31 31 31 31 32 32 32
32 32 32 32 32 31 30 29 30 30 31 31 31 30 29 28 28 28 27 27 27 27 27 27 27 27 28 28 28 28 28 28 28 28 29 29 29 30 30 30 30 30 30 31 32 33 34 35 35 36 36 34 33 32 32 32 31 31 31 30 31 31 31 31 31 31 31 32 32